Location: Auckland
(36.8670°S, 174.7670°E)
Time: 02:11:38
(UTC+12:00)

ATLAS 3B R/B - Pass Details

Date: 24 January 2019
Orbit: 1029 x 1166 km, 63.8° (Epoch: 15 April)

Event Time Altitude Azimuth Distance (km) Brightness Sun altitude
Exits shadow 22:18:12 21° 77° (ENE) 2,261 3.9 -17.5°
Drops below altitude 10° 22:23:04 10° 119° (ESE) 3,035 4.9 -18.2°
Sets 22:26:31 0° 134° (SE) 4,023 5.7 -18.7°
